Location: Cincinnati Observatory Center
(39.1389°N, 84.4225°W)
Time: 21:09:11
(UTC-04:00)

Hubble Space Telescope - Visible Passes

Search period start: 04 May 2015 00:00
Search period end: 14 May 2015 00:00
Orbit: 542 x 546 km, 28.5° (Epoch: 04 May)

Date Brightness Start Highest point End Pass type
(mag) Time Alt. Az. Time Alt. Az. Time Alt. Az.
04 May 2.4 21:42:59 10° SW 21:45:55 19° S 21:46:59 17° SSE visible
05 May 2.5 21:34:18 10° SW 21:37:14 19° S 21:38:57 15° SSE visible
06 May 2.5 21:25:39 10° SW 21:28:33 18° S 21:30:51 12° SE visible
07 May 2.6 21:17:03 10° SW 21:19:51 17° S 21:22:38 10° SE visible
08 May 2.8 21:08:32 10° SW 21:11:09 16° S 21:13:45 10° SSE visible
